Temperature
23 24 26 26 26 26 25 23 22 23 23 24 24 24 24 25 25 25 25 25 25 25 25 25 25 24 24 23 23 23 22 22 21 21 20 20 20 19 19 19 19 18 18 17
23 25 25 26 26 26 25 25 24 24 24 23 24 24 24 24 24 24 24 24 25 25 25 24 24 24 24 23 23 23 22 22 21 21 20 20 19 19 19 19 18 18 18 17
21 23 24 24 24 25 25 24 24 24 23 23 22 22 23 23 24 24 24 24 24 24 24 24 24 24 24 24 23 22 22 22 21 21 20 20 19 19 19 18 18 18 17 17
19 22 23 22 23 25 24 24 23 23 23 22 22 23 24 24 24 24 24 24 24 24 24 24 24 24 23 23 22 22 22 21 21 20 20 19 19 19 19 18 18 18 17 17
17 20 21 22 24 24 23 22 22 22 22 22 23 23 23 24 25 25 24 24 24 24 24 24 24 23 23 22 22 21 21 21 20 20 20 19 19 19 18 18 18 17 17 17
17 20 20 21 23 25 23 21 22 22 21 22 22 20 21 23 24 24 24 24 24 24 24 23 23 23 23 22 22 21 21 21 20 20 19 19 19 19 18 18 18 17 17 17
17 19 19 20 22 24 22 20 21 22 22 23 21 21 23 23 23 23 23 23 23 23 23 23 23 22 22 22 22 21 21 20 20 20 19 19 19 18 18 18 17 17 17 16
16 18 18 20 21 20 19 21 21 22 23 23 22 23 23 23 23 23 23 22 22 22 22 22 22 22 21 21 21 21 20 20 20 19 19 19 18 18 18 17 17 17 16 16
16 17 18 20 20 21 21 21 21 21 22 22 22 22 22 22 22 22 22 22 21 21 21 21 21 21 21 21 20 20 20 20 19 19 19 18 18 18 17 17 17 16 16 16
16 17 18 20 20 21 21 21 21 21 22 22 21 21 21 21 21 21 21 21 21 21 21 20 20 20 20 20 20 19 19 19 19 18 18 18 17 17 17 17 16 16 16 16
16 17 18 20 20 21 21 21 21 21 21 21 21 21 21 21 20 20 20 20 20 20 20 19 19 19 19 19 19 19 18 18 18 18 18 17 17 17 17 17 17 17 16 16
15 17 16 18 20 20 20 20 20 20 20 20 20 20 20 20 20 19 19 19 19 19 19 19 19 19 19 18 18 18 18 17 17 17 17 17 16 16 16 16 16 16 16 15
18 19 19 19 19 19 19 19 20 20 19 19 19 19 19 19 18 18 18 18 18 18 18 18 18 18 18 18 18 17 17 17 17 16 16 16 16 16 16 15 15 15 15 15
18 19 18 19 18 19 19 19 19 19 19 19 18 18 18 18 17 17 17 17 17 17 17 17 17 17 17 17 17 17 17 16 16 16 16 16 15 15 15 15 15 15 15 15
18 18 18 18 18 18 18 18 18 18 18 18 17 17 17 17 16 16 16 16 16 16 16 16 16 16 16 16 16 16 16 16 16 15 15 15 15 15 15 15 15 14 14 14
17 17 17 18 18 18 18 18 17 17 17 17 16 16 16 16 16 16 15 16 16 16 15 15 15 15 15 16 16 16 16 15 15 15 15 15 15 15 14 14 14 14 14 14
17 16 17 17 17 17 17 17 16 16 16 16 15 15 15 15 15 15 15 15 15 15 14 14 15 15 15 15 15 15 15 15 15 14 14 14 14 14 14 14 14 14 14 14
16 16 16 16 16 16 16 16 16 16 15 15 15 15 15 14 14 14 14 14 14 14 14 14 14 14 14 14 14 14 14 14 14 14 14 14 14 14 13 13 13 13 13 13
16 16 16 16 16 16 15 15 15 15 15 15 14 14 14 14 14 13 13 13 13 13 13 13 13 13 13 14 14 14 14 14 14 14 14 14 13 13 13 13 13 13 13 13
15 15 15 15 15 15 15 14 14 14 14 14 14 14 13 13 13 13 13 13 13 12 12 13 13 13 13 13 13 13 13 13 13 13 13 13 13 13 13 13 12 12 12 12
14 14 14 14 14 14 14 14 14 14 13 13 13 13 13 12 12 12 12 12 12 12 12 12 12 12 12 12 13 13 13 13 13 13 13 13 13 12 12 12 12 12 12 12
13 14 14 14 14 13 13 13 13 13 13 13 13 12 12 12 12 12 12 12 12 12 12 12 12 12 12 12 12 12 12 12 12 12 12 12 12 12 12 12 12 12 11 11
13 13 13 13 13 13 13 13 13 13 12 12 12 12 12 12 12 11 11 11 11 11 11 11 12 12 12 12 12 12 12 12 12 12 12 12 11 11 11 11 11 11 11 11
12 12 12 12 12 12 12 12 12 12 12 12 12 12 12 11 11 11 11 11 11 11 11 11 11 11 11 11 11 11 11 11 11 11 11 11 11 11 11 11 11 11 11 11
12 12 12 12 12 12 12 12 12 12 12 12 11 11 11 11 11 11 11 11 11 11 11 11 11 11 11 11 11 11 11 11 11 11 11 10 10 10 10 10 10 10 10 10
11 11 11 12 12 12 12 11 11 11 11 11 11 11 11 11 11 11 11 11 11 10 10 11 11 11 11 10 10 10 10 10 10 10 10 10 10 10 10 10 10 10 10 10
11 11 11 11 11 11 11 11 11 11 11 11 11 11 11 11 11 11 11 10 10 10 10 10 10 10 10 10 10 10 10 10 10 10 10 10 10 10 10 10 10 9 9 9
Wind_Speed
5 5 2 3 4 2 2 7 8 8 8 10 10 9 8 7 7 8 7 8 10 9 7 7 8 8 8 9 9 10 10 10 9 8 8 8 7 7 7 6 6 5 5 4
2 2 3 4 5 2 1 2 4 5 6 7 6 6 7 7 9 9 7 8 9 9 9 9 10 10 9 9 9 9 10 10 9 8 8 8 8 7 7 6 5 5 5 5
2 3 4 4 4 3 2 2 5 5 6 6 8 9 9 9 9 9 7 6 7 8 9 8 8 9 9 9 9 9 9 9 9 9 9 8 9 8 8 7 6 6 5 5
2 3 4 8 4 3 4 1 2 5 6 8 10 8 7 8 10 9 7 6 5 6 7 7 6 6 7 8 8 9 9 9 8 9 8 8 8 8 7 6 7 6 6 6
4 3 4 6 3 1 4 2 2 6 7 7 8 8 4 2 6 8 7 6 5 5 5 6 6 7 8 8 8 8 9 9 9 9 9 9 9 8 7 6 6 5 6 6
4 4 5 6 6 2 6 1 4 4 7 6 7 5 3 2 4 4 4 4 3 3 3 4 5 7 8 8 8 8 9 9 9 9 9 9 9 8 6 6 6 7 6 6
4 4 5 7 7 2 4 5 3 3 5 5 5 6 6 5 4 4 4 4 4 4 3 3 4 6 6 7 8 9 8 8 8 9 9 9 7 6 6 6 6 6 6 5
4 4 6 6 3 3 5 3 2 4 4 6 6 5 6 6 5 5 4 4 4 4 2 2 3 6 5 6 7 7 7 8 8 8 8 7 7 6 6 7 7 6 5 4
6 6 5 1 3 3 5 5 3 3 3 6 6 5 6 5 5 4 3 3 3 4 3 2 2 4 4 4 4 6 7 7 7 7 6 7 7 7 6 7 6 6 5 5
2 2 1 2 3 3 4 4 3 3 4 5 6 6 6 4 3 3 3 3 3 4 3 2 1 1 2 2 3 6 7 7 6 7 6 5 5 6 6 7 7 6 6 6
1 1 2 3 2 2 4 4 4 3 3 4 6 5 5 4 3 2 2 2 3 3 2 0 1 1 1 1 3 4 6 5 5 6 6 5 5 5 7 7 8 8 7 7
4 5 3 2 1 3 5 4 4 4 4 3 4 4 4 3 3 3 2 2 3 2 1 0 0 1 1 1 2 4 5 5 4 5 5 4 5 3 3 4 7 9 9 8
5 3 3 2 1 3 4 3 3 3 3 3 2 4 4 4 2 2 2 2 2 2 1 0 0 1 1 1 2 3 5 5 5 5 5 5 5 5 4 2 2 4 7 8
2 3 3 2 1 2 3 3 3 3 3 4 3 3 4 4 3 2 1 2 2 1 1 0 0 1 2 1 1 2 4 5 5 5 5 5 6 6 6 6 4 3 4 6
1 3 4 2 1 2 3 3 4 3 2 2 2 3 4 4 3 1 1 1 1 2 1 0 0 2 2 0 1 2 3 4 4 5 5 5 5 5 5 6 5 4 2 3
1 1 2 2 1 2 2 3 3 1 1 2 2 1 2 3 2 1 0 1 1 1 1 0 1 3 2 1 1 2 3 5 4 4 4 4 5 5 5 6 5 5 5 4
1 0 0 0 1 1 2 2 2 2 1 1 1 1 2 3 2 0 0 0 1 1 1 1 3 4 3 2 2 2 3 4 5 4 4 5 5 5 5 5 5 5 5 6
3 2 2 3 2 2 1 1 2 2 2 2 1 1 2 2 1 2 2 0 1 1 2 2 3 3 3 2 2 2 2 3 3 4 4 4 4 4 5 5 5 5 3 4
2 1 1 1 1 1 1 1 1 2 2 2 1 1 1 1 1 1 0 0 1 2 4 3 3 3 3 2 2 1 2 2 2 2 3 3 3 4 5 5 5 5 4 3
3 3 2 2 2 2 1 1 1 1 2 2 2 2 1 1 0 1 1 1 2 3 3 2 2 2 2 2 2 1 2 2 2 2 2 3 4 4 5 5 5 4 4 4
3 2 2 2 2 1 1 1 2 2 2 2 2 2 1 1 1 0 1 1 3 2 2 2 1 1 1 2 1 1 1 1 2 2 2 3 3 3 3 4 4 3 3 4
1 1 1 1 2 1 0 1 2 2 2 2 2 2 1 1 1 0 1 2 2 0 1 1 1 1 1 2 1 0 0 1 1 1 2 2 2 2 2 2 2 2 2 3
2 0 1 1 2 2 1 1 2 2 2 2 2 2 2 2 1 2 1 2 1 1 1 1 1 1 2 1 1 1 1 1 1 1 1 1 1 1 1 1 1 1 1 2
1 1 1 2 4 4 3 1 1 1 2 2 2 2 2 1 0 1 1 1 1 2 1 1 2 2 2 2 1 1 1 1 1 1 1 1 1 1 1 1 1 1 0 0
2 2 2 3 3 2 2 2 2 2 2 1 1 1 1 1 1 1 1 1 1 2 2 2 3 2 2 2 2 2 1 1 1 1 1 1 1 1 0 0 1 1 1 1
2 1 1 1 2 2 2 2 2 1 2 2 2 2 2 2 2 2 1 1 2 2 1 1 2 2 2 2 2 2 2 2 1 1 1 1 1 1 1 2 2 2 2 3
2 2 2 2 1 1 2 3 2 2 2 2 2 1 1 2 2 2 2 2 2 2 1 2 2 2 2 2 2 2 2 2 2 2 1 1 1 2 2 3 3 3 3 3
Wind_Direction
206 223 222 267 279 259 172 184 181 202 192 203 197 178 169 157 154 147 143 153 157 159 167 175 174 175 178 183 182 177 173 178 184 178 171 167 162 159 158 156 157 154 147 143
337 343 6 319 295 272 220 163 177 170 204 210 179 135 135 147 146 145 148 158 161 161 168 181 183 182 182 185 183 175 175 178 176 170 169 169 165 161 159 159 157 153 155 156
267 327 24 304 267 210 206 184 165 182 204 166 142 147 157 156 144 143 159 160 161 170 175 183 185 184 184 183 176 178 180 178 173 170 171 171 169 164 167 168 163 161 160 158
131 59 229 242 256 151 125 78 139 154 153 146 149 150 148 148 144 147 155 152 159 173 176 182 184 181 177 171 172 177 178 177 174 171 172 171 169 172 173 170 171 173 172 172
123 174 267 292 293 151 121 358 3 127 132 135 133 102 67 124 142 155 156 153 161 172 174 171 167 170 164 168 172 176 181 181 178 174 172 175 178 181 180 174 175 175 177 179
133 157 218 254 285 245 106 6 326 121 138 144 121 122 207 183 135 131 129 135 134 132 133 153 172 162 161 169 172 184 189 185 179 175 176 181 185 183 179 175 178 176 182 186
161 191 248 266 291 25 122 216 261 134 131 122 131 169 184 149 124 121 120 119 118 112 129 166 164 153 161 174 188 193 185 177 178 178 182 183 181 178 175 176 175 177 184 196
154 178 247 292 18 118 184 191 98 90 103 106 116 122 119 119 121 111 103 100 106 106 96 106 141 150 165 192 199 182 172 174 179 179 181 179 176 176 177 178 181 186 190 204
177 203 233 275 136 156 138 118 103 94 95 110 109 109 108 109 117 116 112 99 100 111 96 70 102 145 172 199 179 167 169 174 175 176 178 174 175 178 181 181 186 193 196 207
118 236 189 91 88 76 93 107 111 111 103 103 113 110 102 105 102 92 93 93 88 89 80 37 19 76 173 188 172 165 170 174 174 176 179 180 183 183 187 191 194 198 205 213
110 248 35 15 38 88 69 72 74 71 94 112 112 114 124 125 126 126 117 112 106 116 130 164 357 14 354 160 154 167 170 172 176 181 184 187 191 194 197 202 201 200 206 205
206 224 169 233 281 92 88 77 66 61 55 77 121 138 129 130 141 137 130 123 113 110 113 336 348 351 336 174 154 164 168 176 179 181 182 183 185 195 217 214 220 219 212 205
198 189 161 171 63 73 93 84 65 71 101 106 99 124 123 124 123 130 149 165 162 168 162 130 271 296 284 205 166 174 183 186 186 186 187 191 194 194 208 245 237 229 226 216
168 116 80 65 83 48 74 74 76 71 93 112 114 119 120 115 114 123 178 197 184 150 128 179 259 282 284 231 164 192 194 193 194 196 196 198 200 199 197 199 209 237 248 230
107 142 161 158 124 65 68 80 79 67 83 78 92 118 126 128 136 158 187 140 108 96 94 358 313 290 295 250 185 209 206 204 203 204 202 202 200 198 201 201 203 209 222 247
338 85 116 101 100 78 84 105 116 152 130 98 79 108 128 130 130 118 86 121 124 161 237 263 288 287 289 271 243 242 227 217 213 213 209 205 201 200 200 201 203 205 210 217
114 23 85 50 176 130 138 168 170 175 146 131 161 151 117 101 96 104 283 235 180 220 252 265 286 301 292 259 242 247 241 226 215 213 213 210 207 207 205 205 206 212 220 216
171 190 196 181 176 193 200 171 157 152 164 184 174 114 102 110 162 240 245 221 28 330 301 279 286 306 295 267 251 253 239 231 216 212 212 212 210 207 204 204 208 213 226 222
68 90 110 134 142 140 156 170 165 153 157 145 131 132 131 148 191 238 244 86 285 288 291 288 280 294 295 292 282 244 230 225 226 223 210 200 202 203 203 206 210 216 219 221
52 58 62 43 56 85 121 155 143 138 162 147 130 112 82 349 300 189 178 254 260 256 266 289 298 303 303 313 319 257 228 215 209 206 200 197 200 207 210 213 215 216 218 223
33 41 53 59 69 77 142 164 155 172 187 148 141 154 176 276 285 197 187 285 295 292 286 290 304 306 305 318 325 258 216 202 203 204 201 202 202 212 217 216 215 214 214 220
343 49 82 114 117 113 152 140 141 148 153 154 160 162 156 224 258 256 242 237 253 274 14 10 5 355 347 349 38 102 139 167 187 189 191 190 190 199 207 210 212 208 214 224
310 224 155 156 140 137 100 90 117 144 151 159 161 167 189 218 202 178 265 288 246 88 53 31 15 10 355 22 56 67 79 122 145 156 171 175 178 188 199 196 199 213 236 247
31 54 74 106 108 106 103 89 99 128 137 137 126 129 143 149 307 252 201 176 91 78 59 46 52 40 33 46 51 49 52 67 93 99 98 105 114 151 181 176 164 154 119 353
59 77 90 98 102 119 136 122 100 94 90 88 83 83 109 146 163 206 90 83 70 60 36 28 38 34 38 53 67 67 72 85 89 88 80 78 80 86 127 144 143 123 106 106
56 67 87 124 144 144 132 119 104 91 96 88 52 38 46 69 93 86 72 74 71 58 40 29 48 62 77 82 79 76 80 76 73 66 52 57 57 69 82 86 88 95 92 90
44 48 54 46 47 101 105 101 95 80 89 103 85 45 63 77 75 63 59 60 60 53 48 51 65 77 83 81 82 75 74 71 60 50 45 49 57 65 80 91 94 94 95 92
Height
1481 1477 1475 1477 1477 1478 1485 1492 1501 1497 1494 1487 1483 1482 1483 1485 1488 1491 1493 1496 1498 1500 1503 1505 1507 1509 1512 1514 1516 1518 1519 1521 1523 1524 1526 1527 1528 1529 1529 1530 1530 1530 1530 1530
1481 1474 1474 1476 1474 1475 1478 1480 1485 1486 1488 1479 1480 1481 1483 1484 1486 1489 1492 1494 1496 1498 1501 1503 1505 1507 1509 1511 1513 1515 1516 1518 1521 1522 1523 1524 1525 1526 1527 1528 1528 1528 1528 1528
1493 1481 1479 1488 1477 1474 1477 1475 1478 1485 1483 1478 1481 1481 1482 1483 1485 1488 1491 1493 1495 1497 1499 1502 1503 1505 1507 1508 1510 1512 1514 1515 1517 1519 1520 1521 1522 1523 1524 1525 1525 1525 1525 1526
1495 1491 1501 1487 1469 1467 1472 1473 1471 1473 1475 1475 1477 1479 1482 1483 1484 1487 1489 1491 1493 1496 1498 1501 1502 1504 1506 1507 1508 1509 1511 1513 1515 1516 1517 1518 1520 1520 1521 1522 1522 1522 1522 1523
1501 1501 1495 1479 1469 1468 1474 1479 1473 1472 1474 1476 1477 1479 1483 1484 1484 1486 1488 1490 1492 1494 1496 1498 1500 1502 1504 1505 1506 1507 1508 1510 1511 1513 1514 1515 1516 1517 1518 1518 1519 1519 1520 1520
1497 1499 1502 1484 1467 1464 1469 1484 1474 1472 1473 1475 1476 1486 1487 1484 1485 1486 1488 1489 1491 1493 1495 1496 1498 1499 1501 1501 1503 1504 1505 1506 1508 1509 1511 1512 1513 1513 1515 1515 1516 1516 1516 1517
1494 1496 1490 1473 1466 1464 1484 1486 1474 1472 1472 1474 1475 1480 1482 1483 1484 1486 1487 1489 1490 1491 1492 1493 1495 1496 1497 1498 1499 1500 1502 1503 1505 1506 1507 1508 1509 1510 1511 1512 1513 1513 1514 1514
1493 1498 1493 1470 1467 1473 1477 1473 1473 1472 1473 1474 1475 1478 1479 1480 1482 1484 1486 1487 1488 1489 1490 1491 1492 1493 1493 1494 1496 1497 1498 1499 1500 1502 1504 1505 1506 1507 1508 1509 1510 1510 1510 1511
1482 1484 1474 1469 1469 1470 1471 1472 1473 1474 1474 1474 1475 1477 1478 1479 1480 1482 1484 1485 1486 1487 1488 1489 1490 1490 1491 1492 1493 1494 1495 1495 1497 1498 1499 1501 1502 1503 1504 1505 1505 1506 1507 1507
1476 1474 1471 1470 1470 1469 1470 1471 1473 1473 1474 1475 1475 1476 1477 1479 1480 1481 1483 1484 1485 1486 1486 1486 1487 1488 1489 1490 1490 1490 1491 1491 1493 1494 1495 1497 1498 1499 1500 1501 1501 1502 1502 1503
1475 1472 1471 1471 1471 1471 1472 1473 1473 1473 1474 1474 1475 1476 1477 1478 1479 1481 1482 1483 1484 1484 1484 1485 1485 1486 1486 1487 1487 1486 1487 1488 1489 1490 1491 1493 1494 1495 1496 1497 1497 1498 1498 1499
1475 1471 1471 1473 1472 1472 1472 1472 1472 1472 1473 1474 1475 1476 1477 1477 1478 1479 1480 1481 1481 1482 1482 1482 1483 1483 1484 1484 1484 1484 1484 1485 1486 1487 1488 1489 1490 1491 1492 1494 1494 1495 1496 1496
1466 1468 1470 1472 1473 1473 1473 1473 1473 1473 1473 1473 1474 1475 1476 1476 1477 1477 1478 1479 1479 1479 1479 1480 1480 1480 1480 1481 1481 1481 1481 1481 1482 1483 1484 1484 1485 1486 1487 1488 1489 1490 1491 1492
1465 1467 1469 1470 1472 1472 1472 1472 1472 1472 1472 1472 1472 1473 1473 1473 1474 1475 1476 1476 1476 1476 1476 1477 1477 1477 1477 1477 1478 1478 1478 1478 1479 1479 1480 1481 1481 1482 1483 1483 1484 1484 1486 1487
1464 1466 1468 1469 1470 1470 1470 1470 1469 1470 1470 1470 1470 1470 1470 1471 1472 1472 1473 1473 1473 1473 1473 1473 1473 1473 1474 1474 1474 1474 1474 1475 1475 1476 1476 1477 1477 1478 1478 1479 1479 1480 1481 1482
1464 1464 1466 1466 1467 1467 1468 1468 1467 1468 1467 1467 1467 1468 1468 1468 1469 1469 1470 1470 1470 1470 1469 1469 1469 1470 1470 1470 1470 1470 1471 1471 1471 1472 1472 1473 1473 1474 1474 1474 1475 1475 1476 1477
1462 1463 1463 1464 1465 1465 1465 1466 1465 1465 1464 1465 1465 1465 1465 1465 1466 1466 1466 1467 1467 1467 1467 1466 1466 1466 1466 1466 1466 1466 1466 1467 1467 1468 1468 1468 1469 1469 1470 1470 1470 1471 1472 1472
1460 1460 1461 1461 1462 1462 1462 1463 1463 1462 1463 1463 1463 1462 1462 1462 1462 1462 1463 1463 1463 1463 1463 1463 1463 1462 1462 1462 1462 1462 1462 1463 1463 1463 1463 1464 1465 1465 1466 1466 1467 1467 1468 1468
1457 1458 1458 1459 1459 1459 1459 1459 1460 1460 1460 1460 1460 1460 1459 1459 1459 1459 1459 1459 1459 1459 1459 1459 1459 1459 1458 1459 1459 1459 1459 1459 1459 1459 1460 1460 1461 1461 1462 1462 1463 1463 1464 1464
1455 1455 1455 1456 1456 1456 1456 1456 1456 1457 1457 1457 1456 1456 1456 1455 1455 1456 1457 1456 1456 1456 1456 1456 1456 1455 1455 1455 1456 1455 1455 1455 1455 1456 1456 1456 1457 1458 1458 1458 1459 1459 1459 1459
1453 1453 1453 1453 1453 1454 1455 1455 1455 1455 1454 1454 1454 1453 1453 1453 1454 1454 1453 1453 1454 1454 1454 1453 1453 1452 1452 1453 1453 1453 1452 1453 1453 1453 1453 1453 1454 1454 1454 1455 1455 1455 1455 1455
1451 1450 1450 1450 1450 1451 1452 1452 1452 1453 1452 1452 1452 1452 1452 1451 1452 1452 1451 1451 1452 1452 1452 1451 1451 1451 1451 1451 1451 1451 1450 1450 1451 1451 1451 1451 1451 1451 1451 1451 1451 1452 1452 1452
1449 1448 1448 1447 1448 1448 1449 1450 1451 1451 1450 1450 1451 1450 1450 1450 1450 1450 1450 1450 1450 1450 1450 1450 1450 1449 1449 1449 1449 1449 1448 1448 1448 1448 1448 1448 1448 1448 1448 1448 1448 1448 1449 1448
1447 1446 1445 1445 1446 1447 1448 1449 1449 1449 1449 1450 1449 1449 1449 1449 1449 1449 1449 1449 1449 1449 1449 1449 1449 1448 1448 1447 1447 1447 1447 1447 1447 1447 1446 1446 1445 1445 1445 1445 1445 1445 1446 1445
1447 1446 1446 1446 1446 1447 1447 1448 1448 1448 1449 1449 1449 1449 1449 1449 1449 1449 1449 1449 1449 1449 1448 1448 1448 1448 1447 1447 1446 1446 1446 1446 1446 1445 1445 1444 1444 1443 1443 1443 1443 1443 1443 1443
1446 1446 1446 1446 1447 1447 1448 1448 1448 1448 1448 1448 1449 1450 1449 1449 1449 1449 1449 1449 1449 1448 1448 1447 1447 1447 1446 1446 1445 1445 1445 1444 1444 1444 1443 1443 1442 1442 1442 1441 1441 1441 1441 1440
1447 1447 1447 1447 1447 1448 1448 1449 1449 1449 1449 1449 1450 1450 1450 1450 1449 1449 1449 1448 1448 1448 1447 1447 1446 1446 1445 1445 1445 1444 1444 1444 1444 1443 1442 1442 1442 1441 1441 1440 1440 1440 1439 1439